TimeEDT,TemperatureF,Dew PointF,Humidity,Sea Level PressureIn,VisibilityMPH,Wind Direction,Wind SpeedMPH,Gust SpeedMPH,PrecipitationIn,Events,Conditions,WindDirDegrees,DateUTC
12:52 AM,57.0,46.9,69,30.25,10.0,SSE,8.1,-,N/A,,Clear,150,2013-09-18 04:52:00
1:52 AM,55.9,46.0,69,30.24,10.0,Variable,6.9,-,N/A,,Clear,0,2013-09-18 05:52:00
2:52 AM,55.9,46.9,72,30.23,10.0,Variable,5.8,-,N/A,,Clear,0,2013-09-18 06:52:00
3:52 AM,55.9,46.9,72,30.22,10.0,Variable,6.9,-,N/A,,Clear,0,2013-09-18 07:52:00
4:52 AM,55.0,46.0,72,30.22,10.0,Variable,4.6,-,N/A,,Clear,0,2013-09-18 08:52:00
5:52 AM,54.0,46.9,77,30.22,10.0,Variable,4.6,-,N/A,,Scattered Clouds,0,2013-09-18 09:52:00
6:52 AM,54.0,46.9,77,30.24,10.0,Variable,5.8,-,N/A,,Scattered Clouds,0,2013-09-18 10:52:00
7:52 AM,55.0,46.9,74,30.26,10.0,Calm,Calm,-,N/A,,Overcast,0,2013-09-18 11:52:00
8:52 AM,57.0,48.0,72,30.25,10.0,Variable,4.6,-,N/A,,Scattered Clouds,0,2013-09-18 12:52:00
9:52 AM,61.0,48.9,64,30.25,10.0,South,4.6,-,N/A,,Mostly Cloudy,170,2013-09-18 13:52:00
10:52 AM,63.0,50.0,63,30.25,10.0,Variable,4.6,-,N/A,,Clear,0,2013-09-18 14:52:00
11:52 AM,66.0,52.0,60,30.23,10.0,SE,4.6,-,N/A,,Partly Cloudy,140,2013-09-18 15:52:00
12:52 PM,68.0,52.0,56,30.22,10.0,Variable,3.5,-,N/A,,Clear,0,2013-09-18 16:52:00
1:52 PM,71.1,54.0,55,30.19,10.0,Variable,3.5,-,N/A,,Overcast,0,2013-09-18 17:52:00
2:52 PM,69.1,55.9,63,30.19,10.0,WSW,4.6,-,N/A,,Overcast,240,2013-09-18 18:52:00
3:52 PM,66.9,57.0,70,30.18,10.0,South,3.5,-,N/A,,Overcast,170,2013-09-18 19:52:00
4:52 PM,66.0,55.0,68,30.17,10.0,SSE,3.5,-,0.00,,Overcast,160,2013-09-18 20:52:00
5:52 PM,66.0,55.0,68,30.17,10.0,Calm,Calm,-,N/A,,Overcast,0,2013-09-18 21:52:00
6:52 PM,64.9,55.9,73,30.17,10.0,Calm,Calm,-,N/A,,Overcast,0,2013-09-18 22:52:00
7:52 PM,64.0,55.9,75,30.16,10.0,SSW,6.9,-,N/A,,Overcast,200,2013-09-18 23:52:00
8:52 PM,64.0,55.9,75,30.17,10.0,Variable,3.5,-,N/A,,Overcast,0,2013-09-19 00:52:00
9:52 PM,64.0,55.9,75,30.17,10.0,South,4.6,-,N/A,,Overcast,190,2013-09-19 01:52:00
10:30 PM,62.6,55.4,77,30.24,10.0,WSW,5.8,-,N/A,,Scattered Clouds,250,2013-09-19 02:30:00
10:52 PM,63.0,55.9,78,30.16,10.0,WSW,5.8,-,N/A,,Partly Cloudy,240,2013-09-19 02:52:00
11:25 PM,62.6,57.2,82,30.24,10.0,WSW,4.6,-,N/A,,Overcast,250,2013-09-19 03:25:00
11:52 PM,63.0,57.0,81,30.16,10.0,West,4.6,-,N/A,,Overcast,280,2013-09-19 03:52:00